Clines Corner, NM

11:54 PM MST on January 22, 2018 (GMT -0700)
Clines Corner

Weather History for KCQC - November, 2013

Change the Weather History Date:

Tuesday, November 5, 2013

  Actual Average (KSAF) Record (KSAF)
Temperature  
Mean Temperature 36 °F -  
Max Temperature 46 °F 68 °F 72 °F (1977)
Min Temperature 25 °F 29 °F 24 °F (2003)
Degree Days  
Heating Degree Days 29    
Moisture  
Dew Point 31 °F    
Average Humidity 78    
Maximum Humidity 100    
Minimum Humidity 45    
Precipitation  
Precipitation 0.03 in - - ()
Sea Level Pressure  
Sea Level Pressure 29.94 in    
Wind  
Wind Speed 15 mph (West)    
Max Wind Speed 31 mph    
Max Gust Speed 38 mph    
Visibility 8 miles    
Events Fog , Rain    
Averages and records for this station are not official NWS values.
T = Trace of Precipitation, MM = Missing Value Source: NWS Daily Summary

Daily Weather History Graph

Daily Weather History Graph

Search for Another Location

Airport or City:

Trip Planner

Search our weather history database for the weather conditions in past years. The results will help you decide how hot, cold, wet, or windy it might be!

Date:

Astronomy

Nov. 05, 2013 Rise Set
Actual Time 6:27 AM MST 5:04 PM MST
Civil Twilight 6:01 AM MST 5:30 PM MST
Nautical Twilight 5:31 AM MST 6:00 PM MST
Astronomical Twilight 5:01 AM MST 6:30 PM MST
Moon 8:42 AM MST (11/5) 7:11 PM MST (11/5)
Length of Visible Light 11h 29m
Length of Day
10h 36m
Waxing Crescent, 7% of the Moon is Illuminated
Nov 5
Waxing Crescent
Nov 9
First Quarter
Nov 17
Full
Nov 25
Last Quarter
Dec 2
New

Hourly Weather History & Observations

Time (MST) Temp. Windchill Dew Point Humidity Pressure Visibility Wind Dir Wind Speed Gust Speed Precip Events Conditions
12:53 AM 35.1 °F 27.9 °F 32.0 °F 89% 29.79 in 10.0 mi SE 9.2 mph - 0.01 in   Mostly Cloudy
1:38 AM 37.4 °F 31.4 °F 35.6 °F 93% 29.91 in 10.0 mi SSE 8.1 mph - 0.00 in   Mostly Cloudy
1:47 AM 37.4 °F 30.8 °F 33.8 °F 87% 29.91 in 10.0 mi South 9.2 mph - 0.00 in   Mostly Cloudy
1:53 AM 37.0 °F 29.8 °F 35.1 °F 93% 29.76 in 10.0 mi SSE 10.4 mph - 0.00 in   Mostly Cloudy
2:21 AM 37.4 °F 29.8 °F 35.6 °F 93% 29.89 in 6.0 mi South 11.5 mph - 0.00 in   Scattered Clouds
2:53 AM 37.9 °F 30.0 °F 36.0 °F 93% 29.74 in 10.0 mi SSW 12.7 mph - 0.00 in   Clear
3:53 AM 39.9 °F 32.1 °F 37.9 °F 93% 29.72 in 10.0 mi SSW 13.8 mph - N/A   Scattered Clouds
4:53 AM 39.9 °F 31.8 °F 37.9 °F 93% 29.79 in 10.0 mi WSW 15.0 mph - N/A   Partly Cloudy
5:17 AM 42.8 °F 35.1 °F 39.2 °F 87% 29.91 in 10.0 mi West 16.1 mph 26.5 mph N/A   Mostly Cloudy
5:23 AM 39.2 °F 30.8 °F 37.4 °F 93% 29.92 in 6.0 mi West 15.0 mph - N/A   Overcast
5:26 AM 39.2 °F 30.8 °F 37.4 °F 93% 29.91 in 1.8 mi West 15.0 mph - N/A   Mostly Cloudy
5:29 AM 39.2 °F 31.6 °F 37.4 °F 93% 29.91 in 0.8 mi West 12.7 mph - N/A   Overcast
5:44 AM 39.2 °F 31.2 °F 37.4 °F 93% 29.92 in 0.2 mi West 13.8 mph - N/A Fog Fog
5:53 AM 39.0 °F 30.3 °F 37.0 °F 93% 29.84 in 0.2 mi West 16.1 mph - N/A Fog Fog
6:08 AM 39.2 °F 29.8 °F 37.4 °F 93% 29.95 in 0.5 mi West 18.4 mph - N/A Fog Fog
6:15 AM 37.4 °F 27.2 °F 37.4 °F 100% 29.95 in 2.0 mi West 19.6 mph - 0.00 in Rain Light Rain
6:18 AM 39.2 °F 29.6 °F 37.4 °F 93% 29.96 in 6.0 mi West 19.6 mph - 0.00 in Rain Light Rain
6:29 AM 39.2 °F 29.6 °F 37.4 °F 93% 29.96 in 10.0 mi West 19.6 mph - 0.00 in Rain Light Rain
6:49 AM 37.4 °F 26.9 °F 37.4 °F 100% 29.96 in 10.0 mi West 20.7 mph 26.5 mph 0.00 in Rain Light Rain
6:53 AM 37.9 °F 27.9 °F 36.0 °F 93% 29.89 in 9.0 mi West 19.6 mph 26.5 mph 0.00 in Rain Light Rain
7:04 AM 37.4 °F 27.2 °F 37.4 °F 100% 29.98 in 8.0 mi West 19.6 mph 26.5 mph 0.02 in Rain Light Rain
7:22 AM 37.4 °F 28.2 °F 35.6 °F 93% 29.96 in 10.0 mi WNW 16.1 mph - 0.02 in   Overcast
7:34 AM 37.4 °F 27.2 °F 35.6 °F 93% 29.96 in 10.0 mi WNW 19.6 mph - 0.02 in   Mostly Cloudy
7:53 AM 39.0 °F 30.3 °F 36.0 °F 89% 29.90 in 10.0 mi WNW 16.1 mph - 0.02 in   Mostly Cloudy
8:14 AM 39.2 °F 30.2 °F 37.4 °F 93% 29.99 in 10.0 mi West 17.3 mph - N/A   Overcast
8:53 AM 42.1 °F 34.9 °F 37.0 °F 82% 29.93 in 10.0 mi West 13.8 mph - N/A   Overcast
9:37 AM 42.8 °F 33.1 °F 35.6 °F 76% 29.99 in 10.0 mi West 25.3 mph 32.2 mph N/A   Mostly Cloudy
9:53 AM 43.0 °F 33.1 °F 36.0 °F 76% 29.92 in 10.0 mi WNW 26.5 mph 33.4 mph N/A   Mostly Cloudy
10:27 AM 44.6 °F 35.5 °F 33.8 °F 66% 30.00 in 10.0 mi WNW 25.3 mph 32.2 mph N/A   Scattered Clouds
10:53 AM 45.0 °F 35.8 °F 30.9 °F 58% 29.91 in 10.0 mi WNW 26.5 mph 38.0 mph N/A   Scattered Clouds
11:53 AM 45.0 °F 35.1 °F 30.0 °F 56% 29.91 in 10.0 mi WNW 31.1 mph 36.8 mph N/A   Partly Cloudy
12:53 PM 46.0 °F 36.9 °F 28.0 °F 50% 29.91 in 10.0 mi West 28.8 mph 36.8 mph N/A   Partly Cloudy
1:53 PM 46.0 °F 37.6 °F 28.0 °F 50% 29.90 in 10.0 mi WNW 24.2 mph 38.0 mph N/A   Clear
2:53 PM 45.0 °F 35.1 °F 26.1 °F 48% 29.91 in 10.0 mi WNW 31.1 mph 38.0 mph N/A   Clear
3:53 PM 41.0 °F 29.7 °F 24.1 °F 51% 29.95 in 10.0 mi NW 31.1 mph 38.0 mph N/A   Clear
4:53 PM 37.0 °F 25.4 °F 23.0 °F 57% 29.99 in 10.0 mi NW 25.3 mph 35.7 mph N/A   Clear
5:53 PM 35.1 °F 23.3 °F 21.9 °F 59% 30.03 in 10.0 mi WNW 23.0 mph 31.1 mph N/A   Clear
6:53 PM 33.1 °F 21.2 °F 19.0 °F 56% 30.07 in 10.0 mi WNW 20.7 mph 26.5 mph N/A   Clear
7:53 PM 32.0 °F 19.8 °F 15.1 °F 50% 30.10 in 10.0 mi WNW 20.7 mph 28.8 mph N/A   Clear
8:53 PM 30.0 °F 17.5 °F 10.9 °F 45% 30.11 in 10.0 mi WNW 19.6 mph 29.9 mph N/A   Clear
9:53 PM 28.9 °F 25.2 °F 10.9 °F 47% 30.15 in 10.0 mi North 3.5 mph - N/A   Clear
10:53 PM 26.1 °F 21.9 °F 12.0 °F 55% 30.18 in 10.0 mi NW 3.5 mph - N/A   Clear
11:53 PM 25.0 °F 14.2 °F 12.0 °F 58% 30.19 in 10.0 mi NW 11.5 mph - N/A   Clear